Vertical_Velocity
2 0 1 -1 -1 -1 1 2 0 -2 -1 -4 0 -0 -0 1 3 -2 3 1 0 -2
-1 -1 -3 -4 -1 2 1 1 -0 -3 -1 -1 3 -3 -2 0 3 0 -2 1 -0 1
-2 2 0 -3 -1 -0 0 -1 -1 0 -1 -1 -4 3 -4 -6 -1 1 -2 0 3 3
-3 -2 0 -1 -0 -1 -0 -2 -2 -3 1 -1 -0 -2 2 -1 -4 0 -1 -3 -7 -2
4 1 -2 0 2 -0 -3 2 2 -1 -4 -4 0 -5 -1 -8 -9 -1 -1 0 -1 -0
2 -2 -5 0 2 -3 0 1 0 0 -1 -5 -3 -1 3 8 2 -2 1 3 -1 1
-2 -3 3 5 1 1 4 -1 -4 1 -1 -0 5 5 0 2 -0 1 -2 1 -3 -0
12 11 7 3 2 -2 1 3 7 -1 -2 3 -8 -10 2 1 -4 -1 2 2 -1 -4
-3 -9 -7 -0 5 1 2 -0 7 -5 -4 1 4 1 0 -1 1 -3 -4 -3 4 3
5 -2 1 5 3 1 3 9 -3 -7 7 -5 -3 3 0 8 -6 3 -2 -3 -2 0
-1 1 1 -0 -0 3 -3 -0 4 0 9 6 -2 -2 2 12 -0 -3 2 -1 0 4
-2 2 2 -1 1 3 3 2 6 6 -1 -6 -3 -1 -1 5 -1 0 -1 5 3 5
3 1 1 2 2 3 4 2 -2 -1 -2 -3 3 -2 4 9 -0 1 -1 7 4 0
3 1 0 2 0 -1 -2 -3 -2 -4 0 2 2 -2 2 8 2 4 5 -2 -0 3
Height
1546 1550 1553 1556 1559 1561 1564 1565 1567 1569 1570 1571 1571 1572 1573 1573 1573 1573 1573 1574 1573 1574
1539 1544 1547 1550 1554 1557 1560 1561 1563 1565 1566 1567 1568 1569 1570 1570 1570 1570 1570 1571 1572 1573
1532 1537 1541 1544 1547 1550 1554 1556 1558 1559 1562 1564 1565 1566 1567 1568 1567 1568 1569 1568 1569 1570
1525 1529 1534 1537 1540 1544 1547 1549 1552 1556 1557 1559 1560 1562 1562 1562 1563 1564 1564 1564 1563 1565
1517 1522 1526 1530 1534 1537 1539 1543 1546 1549 1551 1553 1554 1556 1556 1557 1556 1556 1557 1559 1559 1559
1509 1513 1518 1522 1526 1528 1531 1535 1539 1540 1542 1544 1546 1548 1549 1549 1548 1549 1551 1553 1554 1554
1500 1504 1509 1514 1517 1519 1522 1528 1529 1532 1535 1537 1537 1539 1542 1543 1545 1545 1546 1547 1548 1549
1492 1498 1502 1506 1508 1510 1514 1519 1519 1523 1526 1525 1529 1531 1531 1533 1536 1537 1539 1540 1541 1542
1483 1488 1494 1497 1499 1499 1504 1507 1511 1515 1515 1515 1518 1521 1522 1524 1527 1528 1530 1531 1531 1531
1475 1480 1485 1486 1489 1492 1495 1498 1501 1504 1503 1505 1508 1511 1514 1515 1516 1517 1518 1519 1522 1523
1466 1470 1475 1479 1482 1483 1486 1488 1491 1492 1496 1498 1500 1503 1506 1508 1508 1508 1507 1509 1510 1512
1460 1464 1466 1470 1473 1476 1478 1479 1481 1484 1487 1489 1491 1493 1497 1500 1499 1499 1500 1500 1499 1500
1455 1458 1461 1464 1466 1469 1470 1473 1476 1478 1479 1481 1482 1482 1486 1488 1488 1487 1488 1488 1489 1493
1450 1453 1456 1460 1461 1463 1466 1468 1470 1471 1472 1472 1473 1473 1477 1478 1475 1475 1475 1474 1474 1479